Regional Weather Roundup
Issued by NWS

Home | Current Version | Previous Version | Graphics & Text | Print | Product List | Glossary On
Versions: 1 2 3 4 5 6 7 8 9 10 11 12 13 14 15 16 17 18 19 20 21 22 23 24 25 26 27 28 29 30 31 32 33 34 35 36 37 38 39 40 41 42 43 44 45 46 47 48 49 50
000
ASUS43 KFSD 031410
RWRSD

WEATHER ROUNDUP FOR SOUTH DAKOTA
NATIONAL WEATHER SERVICE SIOUX FALLS SD
900 AM CDT THU SEP 03 2015

NOTE: "FAIR" INDICATES FEW OR NO CLOUDS BELOW 12,000 FEET WITH NO
SIGNIFICANT WEATHER AND/OR OBSTRUCTIONS TO VISIBILITY.


SDZ001>005-009-010-012>017-031500-
NORTHWEST AND NORTH CENTRAL SOUTH DAKOTA

CITY           SKY/WX    TMP DP  RH WIND       PRES   REMARKS
BUFFALO          N/A     72  46  39 CALM      29.69R
MOBRIDGE       SUNNY     74  64  71 SE12      29.70R
$$

SDZ012>016-024>037-041>051-057-063-072>074-031500-
SOUTHWEST AND SOUTH CENTRAL SOUTH DAKOTA

CITY           SKY/WX    TMP DP  RH WIND       PRES   REMARKS
RAPID CTY ARPT MOSUNNY   69  55  60 CALM      29.80R
PIERRE         SUNNY     74  63  68 SE7       29.74R
CUSTER         MOSUNNY   73  42  32 W6        29.99S
ELLSWORTH AFB  MOSUNNY   71  49  46 SW2       29.79R
PHILIP         SUNNY     76  61  59 S7        29.75S
PINE RIDGE     MOSUNNY   72  53  51 SW3       29.86R
WINNER         FAIR      78  61  55 S7        29.78S
$$

SDZ004>011-016>023-039-040-031500-
NORTHEAST SOUTH DAKOTA

CITY           SKY/WX    TMP DP  RH WIND       PRES   REMARKS
ABERDEEN       SUNNY     74  69  85 S14       29.76S
WATERTOWN      SUNNY     73  69  87 S10       29.83R
BROOKINGS      SUNNY     72  66  83 SE10      29.86S
SISSETON         N/A     70  70 100 S9        29.81R
$$

SDZ017-020-022-023-036>040-048>070-031500-
SOUTHEAST SOUTH DAKOTA

CITY           SKY/WX    TMP DP  RH WIND       PRES   REMARKS
SIOUX FALLS    SUNNY     73  68  84 S7        29.85R
HURON          SUNNY     72  68  87 SE12      29.78S
CHAMBERLAIN    SUNNY     70  67  91 E6        29.79R
MITCHELL       SUNNY     71  69  93 S10       29.81R
YANKTON        SUNNY     70  66  88 E6        29.82R
$$

ABBREVIATIONS USED IN REMARKS
   TC - TEMPERATURE IN CELSIUS
  WCI - WIND CHILL INDEX
   HX - HEAT INDEX
  VSB - VISIBILITY



USA.gov is the U.S. government's official web portal to all federal, state and local government web resources and services.